TimeEET,TemperatureF,Dew PointF,Humidity,Sea Level PressureIn,VisibilityMPH,Wind Direction,Wind SpeedMPH,Gust SpeedMPH,PrecipitationIn,Events,Conditions,WindDirDegrees,DateUTC
12:20 AM,44.6,39.2,81,30.30,-9999.0,NW,5.8,-,N/A,,Unknown,320,2012-11-12 22:20:00
12:50 AM,42.8,39.2,87,30.30,-9999.0,NE,4.6,-,N/A,,Unknown,50,2012-11-12 22:50:00
1:20 AM,44.6,39.2,81,30.27,-9999.0,Variable,2.3,-,N/A,,Unknown,0,2012-11-12 23:20:00
1:50 AM,42.8,39.2,87,30.27,-9999.0,Variable,2.3,-,N/A,,Unknown,0,2012-11-12 23:50:00
2:20 AM,44.6,41.0,87,30.27,-9999.0,NW,4.6,-,N/A,,Unknown,320,2012-11-13 00:20:00
2:50 AM,42.8,39.2,87,30.27,-9999.0,NW,5.8,-,N/A,,Unknown,320,2012-11-13 00:50:00
3:20 AM,42.8,39.2,87,30.27,-9999.0,West,4.6,-,N/A,,Unknown,270,2012-11-13 01:20:00
3:50 AM,42.8,39.2,87,30.27,-9999.0,Variable,3.5,-,N/A,,Unknown,0,2012-11-13 01:50:00
4:20 AM,42.8,39.2,87,30.27,-9999.0,NNW,4.6,-,N/A,,Unknown,340,2012-11-13 02:20:00
4:50 AM,41.0,37.4,87,30.27,-9999.0,Variable,3.5,-,N/A,,Unknown,0,2012-11-13 02:50:00
5:20 AM,41.0,37.4,87,30.24,-9999.0,Variable,2.3,-,N/A,,Unknown,0,2012-11-13 03:20:00
5:50 AM,41.0,39.2,93,30.24,-9999.0,NW,4.6,-,N/A,,Unknown,320,2012-11-13 03:50:00
6:20 AM,41.0,39.2,93,30.24,-9999.0,NNW,6.9,-,N/A,,Unknown,330,2012-11-13 04:20:00
6:50 AM,42.8,39.2,87,30.24,-9999.0,Variable,3.5,-,N/A,,Unknown,0,2012-11-13 04:50:00
7:20 AM,41.0,37.4,87,30.27,-9999.0,NNW,5.8,-,N/A,,Unknown,330,2012-11-13 05:20:00
7:50 AM,39.2,37.4,93,30.27,6.2,NNW,5.8,-,N/A,,Mostly Cloudy,340,2012-11-13 05:50:00
8:50 AM,46.4,41.0,81,30.27,6.2,Calm,Calm,-,N/A,,Mostly Cloudy,0,2012-11-13 06:50:00
10:50 AM,55.4,41.0,58,30.27,6.2,Calm,Calm,-,N/A,,Mostly Cloudy,0,2012-11-13 08:50:00
11:50 AM,53.6,44.6,72,30.24,6.2,Calm,Calm,-,N/A,,Mostly Cloudy,0,2012-11-13 09:50:00
12:50 PM,59.0,44.6,59,30.21,-9999.0,Calm,Calm,-,N/A,,Clear,0,2012-11-13 10:50:00
1:50 PM,60.8,44.6,55,30.21,-9999.0,Calm,Calm,-,N/A,,Clear,0,2012-11-13 11:50:00
2:20 PM,60.8,46.4,59,30.21,-9999.0,South,4.6,-,N/A,,Unknown,170,2012-11-13 12:20:00
2:50 PM,59.0,44.6,59,30.21,-9999.0,SSE,4.6,-,N/A,,Unknown,160,2012-11-13 12:50:00
3:20 PM,59.0,44.6,59,30.21,-9999.0,Variable,3.5,-,N/A,,Unknown,0,2012-11-13 13:20:00
3:50 PM,59.0,44.6,59,30.18,-9999.0,Variable,3.5,-,N/A,,Unknown,0,2012-11-13 13:50:00
4:20 PM,59.0,42.8,55,30.18,-9999.0,Variable,1.2,-,N/A,,Unknown,0,2012-11-13 14:20:00
4:50 PM,57.2,44.6,63,30.18,-9999.0,Calm,Calm,-,N/A,,Unknown,0,2012-11-13 14:50:00
5:20 PM,53.6,44.6,72,30.18,-9999.0,Variable,1.2,-,N/A,,Unknown,0,2012-11-13 15:20:00
5:50 PM,50.0,42.8,76,30.18,-9999.0,Variable,3.5,-,N/A,,Unknown,0,2012-11-13 15:50:00
6:20 PM,50.0,42.8,76,30.21,-9999.0,Variable,2.3,-,N/A,,Unknown,0,2012-11-13 16:20:00
6:50 PM,53.6,39.2,58,30.21,-9999.0,Variable,1.2,-,N/A,,Unknown,0,2012-11-13 16:50:00
7:20 PM,53.6,39.2,58,30.21,-9999.0,WNW,4.6,-,N/A,,Unknown,300,2012-11-13 17:20:00
7:50 PM,53.6,39.2,58,30.21,-9999.0,NNW,5.8,-,N/A,,Unknown,340,2012-11-13 17:50:00
8:20 PM,53.6,41.0,62,30.21,-9999.0,WNW,4.6,-,N/A,,Unknown,300,2012-11-13 18:20:00
8:50 PM,51.8,41.0,67,30.21,-9999.0,Variable,3.5,-,N/A,,Unknown,0,2012-11-13 18:50:00
9:20 PM,50.0,41.0,71,30.21,-9999.0,Variable,2.3,-,N/A,,Unknown,0,2012-11-13 19:20:00
9:50 PM,50.0,41.0,71,30.21,-9999.0,Variable,2.3,-,N/A,,Unknown,0,2012-11-13 19:50:00
10:20 PM,46.4,39.2,76,30.21,-9999.0,Variable,3.5,-,N/A,,Unknown,0,2012-11-13 20:20:00
10:50 PM,50.0,41.0,71,30.21,-9999.0,NW,4.6,-,N/A,,Unknown,310,2012-11-13 20:50:00
11:20 PM,50.0,41.0,71,30.21,-9999.0,NNW,4.6,-,N/A,,Unknown,330,2012-11-13 21:20:00
11:50 PM,50.0,41.0,71,30.21,-9999.0,Variable,2.3,-,N/A,,Unknown,0,2012-11-13 21:50:00